| time (UTC) | temp C | wind direction | speed KPH | gust KPH | rain 1hr cm | rain 24hr cm | rain mn cm | humidity % | barometer mb |
| 20260504050016 | 5 | 0.0 | 0.0 | 0.00 | 0.00 | 0.00 | 61 | 1011.7 | |
| 20260504043017 | 5 | 0.0 | 0.0 | 0.00 | 0.00 | 0.00 | 59 | 1011.8 | |
| 20260504040016 | 5 | 0.0 | 0.0 | 0.00 | 0.00 | 0.00 | 57 | 1011.6 | |
| 20260504033017 | 6 | 0.0 | 0.0 | 0.00 | 0.00 | 0.00 | 55 | 1011.7 | |
| 20260504030016 | 6 | 0.0 | 0.0 | 0.00 | 0.00 | 0.00 | 55 | 1011.5 | |
| 20260504023018 | 7 | 0.0 | 0.0 | 0.00 | 0.00 | 0.00 | 51 | 1011.5 | |
| 20260504020016 | 8 | 0.0 | 0.0 | 0.00 | 0.00 | 0.00 | 48 | 1011.3 | |
| 20260504013016 | 8 | 0.0 | 0.0 | 0.00 | 0.00 | 0.00 | 42 | 1011.2 | |
| 20260504010036 | 9 | 0.0 | 0.0 | 0.00 | 0.00 | 0.00 | 39 | 1011.0 | |
| 20260504003038 | 11 | 0.0 | 0.0 | 0.00 | 0.00 | 0.00 | 34 | 1010.8 | |
| 20260504000017 | 12 | 0.0 | 4.8 | 0.00 | 0.00 | 0.00 | 30 | 1010.2 | |
| 20260503233016 | 13 | 0.0 | 3.2 | 0.00 | 0.00 | 0.00 | 26 | 1010.0 | |
| 20260503230016 | 13 | 0.0 | 4.8 | 0.00 | 0.00 | 0.00 | 24 | 1009.7 | |
| 20260503223036 | 13 | 338 | 1.6 | 4.8 | 0.00 | 0.00 | 0.00 | 21 | 1009.5 |
| 20260503220016 | 14 | 23 | 1.6 | 6.4 | 0.00 | 0.00 | 0.00 | 22 | 1009.5 |
| 20260503213036 | 14 | 23 | 1.6 | 12.9 | 0.00 | 0.00 | 0.00 | 19 | 1009.2 |
| 20260503210016 | 14 | 23 | 3.2 | 11.3 | 0.00 | 0.00 | 0.00 | 21 | 1009.3 |
| 20260503203016 | 13 | 0 | 1.6 | 11.3 | 0.00 | 0.00 | 0.00 | 25 | 1009.5 |
| 20260503200016 | 12 | 23 | 1.6 | 16.1 | 0.00 | 0.00 | 0.00 | 26 | 1009.7 |
| 20260503193056 | 13 | 23 | 3.2 | 12.9 | 0.00 | 0.00 | 0.00 | 25 | 1010.1 |
| 20260503190036 | 12 | 315 | 3.2 | 19.3 | 0.00 | 0.00 | 0.00 | 27 | 1010.4 |
| 20260503183016 | 13 | 23 | 3.2 | 12.9 | 0.00 | 0.00 | 0.00 | 28 | 1010.7 |
| 20260503180017 | 11 | 23 | 4.8 | 11.3 | 0.00 | 0.00 | 0.00 | 32 | 1011.0 |
| 20260503173016 | 11 | 338 | 3.2 | 12.9 | 0.00 | 0.00 | 0.00 | 32 | 1011.1 |